Regional Weather Roundup
Issued by NWS

Home | Current Version | Previous Version | Text Only | Print | Product List | Glossary Off
Versions: 1 2 3 4 5 6 7 8 9 10 11 12 13 14 15 16 17 18 19 20 21 22 23 24 25 26 27 28 29 30 31 32 33 34 35 36 37 38 39 40 41 42 43 44 45 46 47 48 49 50

000
ASUS44 KMEG 191800
RWRTN
TENNESSEE HOURLY STATE WEATHER ROUNDUP
NATIONAL WEATHER SERVICE MEMPHIS TN
1200 PM CST FRI DEC 19 2014

TNZ002-004-019-021-049-052-054-088>092-191900-
WEST TENNESSEE

CITY           SKY/WX    TMP DP  RH WIND       PRES   REMARKS
MEMPHIS INTL   CLOUDY    43  34  70 N6        30.27S
NWS MEMPHIS      N/A     41 N/A N/A MISG        N/A
JACKSON        CLOUDY    42  29  59 VRB3      30.26S
DYERSBURG      CLOUDY    39  21  48 NE3       30.29S
UNION CITY     CLOUDY    36  28  75 NE6       30.25F WCI  31
PARIS          CLOUDY    36  27  69 NE10      30.24F WCI  28
LEXINGTON      CLOUDY    39  28  65 NE7       30.23S WCI  34
SAVANNAH       CLOUDY    41  30  65 E5        30.24S
$$

TNZ008-025-027-028-033-062-065-066-191900-
NORTH MIDDLE TENNESSEE

CITY           SKY/WX    TMP DP  RH WIND       PRES   REMARKS
NASHVILLE      CLOUDY    39  28  64 NE6       30.25F WCI  35
CLARKSVILLE    CLOUDY    37  28  70 CALM      30.27F
COOKEVILLE     SUNNY     37  30  75 CALM      30.21F
CROSSVILLE     CLOUDY    38  24  57 NE6       30.18F WCI  33
$$

TNZ061-075-076-078-094-096-097-191900-
SOUTH MIDDLE TENNESSEE

CITY           SKY/WX    TMP DP  RH WIND       PRES   REMARKS
FAYETTEVILLE   MOSUNNY   37  28  70 MISG      30.19F
TULLAHOMA      SUNNY     39  25  56 NE6       30.21F WCI  35
WINCHESTER     SUNNY     39  28  65 N5        30.21F
SHELBYVILLE    MOSUNNY   39  28  65 NE7       30.23F WCI  34
$$

TNZ017-018-042-046-047-191900-
NORTHEAST TENNESSEE

CITY           SKY/WX    TMP DP  RH WIND       PRES   REMARKS
TRI CITIES     PTSUNNY   45  23  42 NE3       30.17F
ELIZABETHTON   CLEAR     43  19  39 W7        30.16S
$$

TNZ012-013-036-069-073-074-191900-
CENTRAL EAST TENNESSEE

CITY           SKY/WX    TMP DP  RH WIND       PRES   REMARKS
KNOXVILLE      CLOUDY    43  25  49 NE7       30.19F
OAK RIDGE      CLOUDY    46  20  35 VRB3      30.21F
GATLINBURG     CLEAR     43  25  49 CALM      30.18F
$$

TNZ083-085-099-191900-
SOUTHEAST TENNESSEE

CITY           SKY/WX    TMP DP  RH WIND       PRES   REMARKS
CHATTANOOGA    CLOUDY    46  28  49 N7        30.19F
$$

SKY/WX REPORTED AS FAIR MEANS FEW OR NO CLOUDS BELOW
12 THOUSAND FEET.



USA.gov is the U.S. government's official web portal to all federal, state and local government web resources and services.